Kalispell, MT

9:17 AM MST on January 16, 2017 (GMT -0700)
Glacier Park International

Weather History for KGPI - April, 2013

Change the Weather History Date:

Tuesday, April 30, 2013

  Actual Average Record
Temperature  
Mean Temperature 33 °F 47 °F  
Max Temperature 45 °F 61 °F 81 °F (1968)
Min Temperature 20 °F 34 °F 20 °F (1982)
Degree Days  
Heating Degree Days 32 18  
Month to date heating degree days 725 640  
Since 1 July heating degree days 6905 7411  
Cooling Degree Days 0 0  
Month to date cooling degree days 0 0  
Year to date cooling degree days 0 0  
Moisture  
Dew Point 28 °F    
Average Humidity 72    
Maximum Humidity 92    
Minimum Humidity 51    
Precipitation  
Precipitation 0.02 in 0.04 in 0.66 in (1961)
Month to date precipitation 1.40 1.24  
Year to date precipitation 3.35 4.63  
Snow  
Snow T in - - ()
Month to date snowfall 0.9  
Year to date snowfall 9.2  
Since 1 July snowfall 18.0  
Snow Depth 0.00 in    
Sea Level Pressure  
Sea Level Pressure 30.09 in    
Wind  
Wind Speed 4 mph (South)    
Max Wind Speed 20 mph    
Max Gust Speed 23 mph    
Visibility 8 miles    
Events Snow    
T = Trace of Precipitation, MM = Missing Value Source: NWS Daily Summary

Daily Weather History Graph

Daily Weather History Graph

Search for Another Location

Airport or City:

Trip Planner

Search our weather history database for the weather conditions in past years. The results will help you decide how hot, cold, wet, or windy it might be!

Date:

Astronomy

Apr. 30, 2013 Rise Set
Actual Time 6:19 AM MDT 8:50 PM MDT
Civil Twilight 5:44 AM MDT 9:25 PM MDT
Nautical Twilight 5:00 AM MDT 10:09 PM MDT
Astronomical Twilight 4:09 AM MDT 11:00 PM MDT
Moon 1:21 AM MDT (4/30) 10:48 AM MDT (4/30)
Length of Visible Light 15h 40m
Length of Day
14h 30m
Waning Gibbous, 69% of the Moon is Illuminated
Apr 30
Waning Gibbous
May 2
Last Quarter
May 9
New
May 17
First Quarter
May 24
Full

Hourly Weather History & Observations

Time (MDT) Temp. Windchill Dew Point Humidity Pressure Visibility Wind Dir Wind Speed Gust Speed Precip Events Conditions
12:55 AM 35.1 °F 26.9 °F 28.9 °F 78% 29.91 in 10.0 mi SSE 11.5 mph - N/A   Overcast
1:55 AM 32.0 °F 25.6 °F 28.0 °F 85% 29.91 in 10.0 mi South 6.9 mph - N/A   Clear
2:55 AM 33.1 °F 25.5 °F 28.9 °F 85% 29.91 in 10.0 mi SSE 9.2 mph - N/A   Clear
3:55 AM 30.9 °F 26.2 °F 28.0 °F 89% 29.93 in 10.0 mi South 4.6 mph - N/A   Clear
4:55 AM 24.1 °F 19.7 °F 23.0 °F 96% 29.96 in 10.0 mi WSW 3.5 mph - N/A   Clear
5:55 AM 25.0 °F 20.7 °F 23.0 °F 92% 29.98 in 10.0 mi WNW 3.5 mph - N/A   Clear
6:55 AM 21.9 °F - 19.9 °F 92% 30.01 in 10.0 mi Calm Calm - N/A   Clear
7:55 AM 32.0 °F - 26.1 °F 79% 30.01 in 10.0 mi Calm Calm - N/A   Partly Cloudy
8:55 AM 36.0 °F - 28.0 °F 73% 30.03 in 10.0 mi Calm Calm - N/A   Clear
9:55 AM 39.0 °F - 25.0 °F 57% 30.03 in 10.0 mi Calm Calm - N/A   Partly Cloudy
11:55 AM 41.0 °F 32.8 °F 25.0 °F 53% 30.04 in 10.0 mi NNE 16.1 mph 23.0 mph N/A   Clear
12:55 PM 37.9 °F 35.5 °F 27.0 °F 65% 30.09 in 10.0 mi Variable 3.5 mph - N/A   Mostly Cloudy
1:34 PM 33.8 °F 24.8 °F 30.2 °F 87% 30.05 in 1.8 mi SSE 12.7 mph - 0.00 in Snow Light Snow
1:45 PM 33.8 °F 25.3 °F 30.2 °F 87% 30.05 in 1.2 mi SSE 11.5 mph - 0.00 in Snow Light Snow
1:55 PM 34.0 °F 26.6 °F 30.9 °F 89% 30.14 in 1.0 mi SSE 9.2 mph - 0.01 in Snow Light Snow
2:05 PM 33.8 °F 25.3 °F 30.2 °F 87% 30.06 in 0.8 mi SSE 11.5 mph - 0.00 in Snow Light Snow
2:13 PM 33.8 °F 24.8 °F 32.0 °F 93% 30.06 in 1.5 mi SSE 12.7 mph - 0.00 in Snow Light Snow
2:33 PM 35.6 °F 28.0 °F 30.2 °F 81% 30.07 in 10.0 mi South 10.4 mph - 0.00 in   Scattered Clouds
2:55 PM 35.6 °F 27.5 °F 30.2 °F 81% 30.08 in 10.0 mi South 11.5 mph - N/A   Mostly Cloudy
3:55 PM 37.9 °F 32.7 °F 28.9 °F 70% 30.17 in 10.0 mi SSW 6.9 mph - N/A   Mostly Cloudy
4:55 PM 37.9 °F 35.5 °F 28.9 °F 70% 30.20 in 10.0 mi South 3.5 mph - N/A   Mostly Cloudy
5:55 PM 39.0 °F - 27.0 °F 62% 30.22 in 10.0 mi Calm Calm - N/A   Mostly Cloudy
6:55 PM 37.9 °F 35.5 °F 27.0 °F 65% 30.25 in 10.0 mi SSE 3.5 mph - N/A   Mostly Cloudy
7:55 PM 37.9 °F 34.4 °F 28.9 °F 70% 30.25 in 10.0 mi SSW 4.6 mph - N/A   Mostly Cloudy
8:55 PM 35.1 °F 32.2 °F 27.0 °F 72% 30.27 in 10.0 mi South 3.5 mph - N/A   Mostly Cloudy
9:55 PM 32.0 °F - 27.0 °F 82% 30.30 in 10.0 mi Calm Calm - N/A   Mostly Cloudy
10:55 PM 34.0 °F - 28.0 °F 79% 30.31 in 10.0 mi Calm Calm - N/A   Overcast
11:55 PM 34.0 °F - 28.0 °F 79% 30.34 in 10.0 mi Calm Calm - N/A   Overcast